Weather in Kolybelskoye

Russia / Lipetsk Oblast     53°06′18″N   39°56′03″E
temp.,
°C
wind,
m/s
gust,
m/s
humid.,
%
clouds,
%
prec.,
mm/h
press.,
hPa
HPBL,
m
23 april, fri
fri2300:00+7s257816 0.0 102089
03:00+6s2383100 0.0 102055
06:00+7s258493 0.0 1020113
09:00+14s36605 0.1 1019542
12:00+16ssw5740100 0.3 10182497
15:00+16s474497 0.3 10172258
18:00+15sse485382 0.0 1015510
21:00+10se310795 0.0 1015195
24 april, sat
sat2400:00+10sse41176100 0.0 1012341
03:00+9s4118671 0.1 1010362
06:00+9s41281100 0.3 1009976
09:00+5w3593100 2.3 1010520
12:00+5wnw4894100 2.9 1010740
15:00+9w476298 4.0 10081393
18:00+8w4766100 1.1 1008718
21:00+5w51179100 1.6 1009677
25 april, sun
sun2500:00+4w51180100 0.0 1010727
03:00+2wsw51297100 3.3 1011630
06:00+3w61184100 2.0 1013674
09:00+5w59705 2.0 10151088
12:00+8w71048100 0.1 10152495
15:00+9w61043100 0.3 10152810
18:00+8wsw59577 0.2 10151081
21:00+4s312715 0.2 1015280
26 april, mon
mon2600:00+4sw61291100 0.4 1015856
03:00+4w5976100 0.5 10151013
06:00+1sw269178 0.0 1016263
09:00+6wsw2365100 0.0 1016936
12:00+8wsw2348100 0.1 10141708
15:00+7s3358100 0.1 10131243
18:00+7ssw2365100 0.2 1012455
21:00+3s24845 0.3 101290
27 april, tue
tue2700:00+2ssw248631 0.0 101186
03:00+1sw268986 0.1 1011129
06:00+2sw3989100 0.6 1011362
09:00+5wsw577285 1.1 10111198
12:00+4wnw5875100 0.4 1013974
15:00+9w6843100 0.7 10122462
18:00+6wsw48645 0.6 1013573
21:00+3wsw2477100 0.8 101571